This is the latest recevied weather packets stored in our database for station/object KE8WMS. If no packets are shown the sender has not sent any weather packets the latest 10 day(s).
| Time | Temp. | Humidity | Pressure | Rain* | Wind** | Luminosity | Snow |
|---|---|---|---|---|---|---|---|
| 1777559761 | 7.78° C | 81% | 1011.4 hPa | 0 mm | - | 283 W/m² | - |
| 1777559458 | 7.78° C | 80% | 1011.5 hPa | 0 mm | - | 262 W/m² | - |
| 1777559156 | 7.78° C | 80% | 1011.4 hPa | 0 mm | - | 317 W/m² | - |
| 1777558855 | 7.78° C | 81% | 1011.4 hPa | 0 mm | - | 243 W/m² | - |
| 1777558551 | 7.78° C | 81% | 1011 hPa | 0 mm | - | 235 W/m² | - |
| 1777558248 | 7.78° C | 80% | 1011 hPa | 0 mm | - | 187 W/m² | - |
| 1777557943 | 7.78° C | 80% | 1011 hPa | 0 mm | - | 233 W/m² | - |
| 1777557641 | 7.78° C | 80% | 1010.9 hPa | 0 mm | - | 393 W/m² | - |
| 1777557337 | 7.78° C | 81% | 1010.9 hPa | 0 mm | - | 182 W/m² | - |
| 1777557034 | 7.22° C | 81% | 1010.9 hPa | 0 mm | - | 207 W/m² | - |
| 1777556729 | 7.78° C | 82% | 1010.7 hPa | 0 mm | - | 148 W/m² | - |
| 1777556426 | 7.22° C | 82% | 1010.9 hPa | 0 mm | - | 277 W/m² | - |
| 1777556126 | 7.22° C | 82% | 1010.9 hPa | 0 mm | - | 164 W/m² | - |
| 1777555822 | 7.22° C | 81% | 1010.5 hPa | 0 mm | - | 117 W/m² | - |
| 1777555517 | 7.22° C | 82% | 1010.8 hPa | 0 mm | - | 142 W/m² | - |
| 1777555214 | 7.22° C | 82% | 1010.6 hPa | 0 mm | - | 186 W/m² | - |
| 1777554911 | 7.22° C | 82% | 1010.5 hPa | 0 mm | - | 195 W/m² | - |
| 1777554608 | 6.67° C | 83% | 1010.6 hPa | 0 mm | - | 142 W/m² | - |
| 1777554304 | 6.67° C | 84% | 1010.5 hPa | 0 mm | - | 121 W/m² | - |
| 1777554001 | 6.67° C | 85% | 1010.5 hPa | 0 mm | - | 129 W/m² | - |
| 1777553698 | 6.67° C | 85% | 1010.7 hPa | 0 mm | - | 121 W/m² | - |
| 1777553394 | 6.67° C | 85% | 1010.5 hPa | 0 mm | - | 111 W/m² | - |
| 1777553091 | 6.67° C | 85% | 1010.3 hPa | 0 mm | - | 97 W/m² | - |
| 1777552790 | 6.67° C | 85% | 1010.2 hPa | 0 mm | - | 109 W/m² | - |
| 1777552487 | 6.67° C | 85% | 1010.4 hPa | 0 mm | - | 123 W/m² | - |
* Rain latest hour (hover to see other rain measurements)
** Current wind speed in m/s (hover to see current wind gust speed)